Simultaneous Nadir Overpasses (SNOs) Predictions

Prediction of SNOs between NOAA-19 and TERRA Satellite Orbit:

Table of predicted SNOs for the next 14.0 days since TLE Epoch: 12/25/2021
Index Date (NOAA-19) Time (NOAA-19) Lat,Lon (NOAA-19) SZA (NOAA-19 ) Date (TERRA) Time (TERRA) Lat,Lon (TERRA) SZA (TERRA ) Distance(km) Time Diff (sec)
1 12/25/2021 15:32:20 -80.58, 162.19 74.47 12/25/2021 15:32:39 -80.59, 162.18 74.45 1.22 19
2 12/25/2021 16:23:16 80.57, -30.47 105.54 12/25/2021 16:22:06 80.56, -30.45 105.50 1.37 70
3 12/27/2021 21:05:21 80.59,-101.34 105.41 12/27/2021 21:06:19 80.60,-101.16 105.45 3.40 58
4 12/27/2021 21:56:23 -80.58, 66.10 74.59 12/27/2021 21:55:46 -80.56, 66.11 74.62 2.44 37
5 12/30/2021 03:29:23 80.58, 163.03 105.28 12/30/2021 03:29:25 80.59, 163.04 105.29 1.80 2
6 01/01/2022 09:02:30 -80.59,-100.39 74.92 01/01/2022 09:03:06 -80.59,-100.45 74.91 1.08 36
7 01/01/2022 09:53:27 80.58, 67.03 105.09 01/01/2022 09:52:32 80.59, 67.19 105.09 3.01 55
8 01/03/2022 14:35:34 80.63, -4.60 104.81 01/03/2022 14:36:47 80.55, -4.29 104.80 10.36 73
9 01/03/2022 15:26:33 -80.58, 163.77 75.14 01/03/2022 15:26:13 -80.58, 163.68 75.16 1.71 20
10 01/05/2022 20:59:35 80.59, -99.58 104.60 01/05/2022 20:59:52 80.60, -99.59 104.61 0.67 17
11 01/05/2022 21:50:26 -80.42, 71.35 75.22 01/05/2022 21:49:22 -80.51, 67.12 75.56 78.49 64
12 01/08/2022 02:32:40 -80.60, -2.90 75.70 01/08/2022 02:33:32 -80.62, -2.83 75.66 2.40 52



Historial Predications of SNOs between NOAA-19 and TERRA
